Location: Chaumontel
(49.1247°N, 2.4324°E)
Time: 01:19:51
(UTC+00:00)

IRIDIUM 103 - Pass Details

Date: 23 May 2025
Orbit: 775 x 779 km, 86.4° (Epoch: 12 June)

Event Time Altitude Azimuth Distance (km) Brightness Sun altitude
Exits shadow 23:48:04 23° 126° (SE) 1,613 5.6 -20.1°
Maximum altitude 23:50:21 33° 83° (E) 1,294 5.5 -20.1°
Drops below altitude 10° 23:54:59 10° 21° (NNE) 2,341 7.9 -20.1°
Sets 23:57:32 0° 12° (NNE) 3,273 9.1 -20.1°
